Theta_e
312 312 312 313 313 313 314 314 315 315 315 315 316 316 316 317 318 318 319 322 324 327 326 330 346 348 349 344 345 343 342 337 336 336 337 339 342 344 346 348 349 348 350 347 352
312 312 312 313 313 313 313 314 314 315 315 315 316 316 316 317 319 324 323 320 323 326 327 336 342 346 343 339 338 341 338 335 334 334 336 335 339 342 347 347 350 350 353 349 352
311 312 312 312 313 313 313 314 314 315 315 315 315 316 317 317 325 330 328 322 321 324 334 336 336 339 335 331 334 336 336 334 333 333 333 335 337 339 346 348 347 350 353 350 351
311 311 312 312 313 313 313 314 314 315 315 315 316 316 317 318 330 329 326 326 322 327 335 329 334 332 331 333 331 334 333 332 332 332 336 337 338 340 343 344 346 347 351 350 350
311 311 311 312 312 313 313 314 314 314 315 315 316 316 316 320 322 326 326 321 321 326 330 327 329 330 333 332 331 332 333 331 331 333 339 338 339 340 341 341 344 348 350 350 348
310 311 311 311 312 313 313 314 314 315 315 316 316 316 317 320 319 321 327 322 322 327 326 327 327 325 327 330 331 331 331 332 333 336 341 340 340 341 344 343 346 349 349 350 349
310 310 311 311 311 312 313 313 314 315 315 316 316 316 317 319 318 318 329 326 328 326 324 322 322 324 328 331 329 329 332 334 335 335 336 339 340 342 341 346 349 350 349 350 352
309 310 310 311 311 312 312 313 314 315 315 316 316 316 319 318 318 318 323 326 326 325 322 323 324 325 326 328 329 330 333 334 335 334 335 334 335 335 343 347 350 351 350 351 354
308 309 310 310 311 312 312 313 314 315 315 316 317 318 320 318 318 319 320 323 323 323 323 323 324 326 326 328 332 333 332 334 332 332 334 332 332 335 342 346 350 352 352 352 354
306 308 309 310 311 312 313 313 314 315 316 318 319 321 320 320 322 322 322 323 323 324 324 323 325 327 328 328 329 332 333 331 330 332 332 333 332 335 338 344 348 351 354 353 354
305 306 307 308 310 311 313 313 320 321 319 321 324 322 320 321 321 323 323 324 324 324 326 326 327 328 328 329 329 329 329 330 330 330 330 333 332 336 339 341 347 350 352 353 353
304 305 306 307 309 310 311 317 315 313 317 319 319 320 320 321 322 323 322 324 324 325 325 326 326 327 327 327 327 328 328 329 329 329 330 332 333 341 346 344 343 349 351 352 353
305 305 305 306 308 309 310 315 314 314 319 320 320 319 320 320 321 322 323 324 325 326 326 326 327 326 326 327 327 328 328 328 328 329 330 331 332 339 344 349 346 344 348 350 352
305 305 305 306 308 307 313 314 314 315 321 322 320 320 319 320 322 322 323 324 326 326 326 326 326 325 325 325 326 327 328 327 327 328 330 331 331 337 344 351 351 347 347 350 352
304 305 304 305 305 307 309 312 312 315 319 322 321 319 320 321 322 322 322 323 326 326 326 327 325 324 324 325 326 327 327 327 328 329 331 331 330 335 347 345 352 352 351 350 352
304 304 305 305 305 306 308 309 314 319 319 320 321 321 321 321 322 322 322 322 324 326 326 327 325 326 326 326 326 327 327 328 329 329 331 331 331 331 333 335 344 353 352 351 351
304 305 305 304 307 306 306 312 320 320 319 320 321 322 323 324 323 323 324 324 325 326 327 326 326 325 325 325 326 326 328 329 330 329 329 333 330 331 331 339 345 349 352 351 351
304 305 306 305 306 306 307 318 320 320 320 320 321 321 322 324 323 323 323 325 325 327 327 328 328 327 326 326 327 328 328 329 330 329 329 332 328 330 332 338 348 347 350 348 347
304 305 306 306 306 306 311 319 320 320 319 319 320 320 322 324 323 323 323 324 325 325 326 327 327 326 325 326 326 327 328 329 329 329 328 328 329 332 331 338 345 348 350 349 344
303 305 310 311 309 307 313 317 320 319 319 320 319 321 322 324 324 324 324 324 324 325 326 326 326 325 326 326 326 327 329 328 329 330 330 329 331 330 335 338 348 349 351 352 348
304 309 314 312 310 309 313 316 317 318 318 319 321 321 322 323 324 325 325 327 326 324 325 326 326 326 326 326 327 327 327 328 329 331 330 330 330 331 331 337 346 348 348 352 351
305 311 312 307 312 311 313 316 315 317 317 318 318 319 320 320 322 325 326 327 326 328 324 325 326 326 326 327 327 328 328 329 329 331 330 331 330 330 330 337 345 347 348 350 347
305 309 314 310 314 314 312 314 315 316 317 318 318 319 319 320 322 324 324 324 325 327 328 327 325 327 327 326 326 326 327 328 329 333 332 331 330 334 339 341 343 349 351 349 343
307 316 317 311 313 316 315 315 315 315 316 316 318 318 319 321 321 323 323 324 323 328 324 325 330 330 327 328 328 327 327 328 329 330 330 332 330 340 341 341 342 345 350 350 345
309 315 319 319 316 314 316 319 319 319 318 317 319 318 319 320 321 322 323 324 324 325 330 333 334 331 329 328 327 328 328 327 329 330 332 333 332 343 342 342 341 342 349 350 349
314 317 318 319 319 319 317 321 322 321 321 320 319 320 320 320 321 322 322 324 325 326 329 332 333 333 332 328 329 329 329 330 330 331 333 335 338 341 341 341 342 342 341 345 348
306 312 315 319 321 320 321 321 321 321 321 320 321 321 322 322 320 321 324 327 328 327 327 329 332 331 330 330 330 329 330 330 332 333 336 334 344 342 344 343 347 346 345 343 341
Wind_Speed
12 12 11 11 11 11 11 11 12 12 12 11 11 12 11 11 12 12 10 9 10 9 6 8 7 5 6 5 5 5 5 7 12 12 11 5 4 4 2 6 7 5 3 9 18
12 13 13 13 12 12 12 12 13 12 13 13 12 11 12 12 10 8 8 10 11 11 10 10 9 8 3 4 3 8 6 10 10 10 14 10 6 6 6 8 9 9 6 15 19
13 14 14 14 14 14 13 13 14 13 13 14 14 13 12 12 3 1 5 8 12 12 11 8 7 6 7 5 2 4 9 15 14 13 16 14 7 9 12 8 10 12 15 19 19
15 15 15 16 16 16 16 15 15 15 15 14 14 14 12 7 2 2 4 7 12 15 12 8 7 6 8 6 2 9 14 13 17 17 13 8 6 5 12 6 6 9 17 21 20
16 16 16 16 17 17 17 17 17 16 16 15 15 15 12 7 5 4 2 11 12 12 14 10 9 9 11 7 8 11 13 16 18 17 9 7 5 5 5 4 4 12 19 20 18
16 18 18 18 18 18 18 18 18 17 16 16 15 15 9 10 7 4 7 11 12 14 11 11 8 9 11 11 9 11 17 21 13 8 1 8 4 2 5 6 8 13 19 18 17
17 17 18 19 19 19 18 18 19 18 16 16 14 14 11 12 7 6 8 8 10 10 9 8 6 8 5 10 7 11 14 17 3 5 7 8 10 2 3 8 11 14 18 16 15
18 18 18 19 20 20 18 19 18 18 17 15 14 12 9 11 8 12 11 11 10 10 9 5 6 8 10 8 11 11 15 15 8 3 3 10 10 8 3 6 9 13 18 15 14
19 19 19 19 20 20 18 18 18 17 15 14 10 6 9 8 9 11 14 10 12 10 8 6 5 9 7 13 15 14 14 15 11 1 10 6 14 5 2 5 10 14 18 18 18
22 20 19 19 20 19 17 17 15 14 14 11 12 6 12 4 6 7 12 13 11 11 7 9 9 10 11 11 14 16 13 12 10 3 12 14 11 6 2 5 10 14 17 21 22
21 22 20 18 18 18 15 11 9 5 6 13 2 9 1 3 7 9 10 12 12 16 15 13 11 13 14 10 9 9 11 18 15 14 10 14 9 5 5 6 10 16 18 21 23
22 22 21 19 16 13 9 4 2 5 11 14 19 23 22 12 7 12 12 13 14 17 17 8 16 13 5 7 10 11 14 16 15 7 9 13 6 3 3 3 9 15 18 21 20
21 22 21 18 15 7 5 4 5 8 8 11 15 18 17 15 18 20 19 18 15 16 16 18 10 3 9 13 13 15 15 13 15 8 12 11 11 9 5 4 6 13 17 18 19
21 21 21 17 8 10 2 5 7 4 6 9 9 9 10 13 10 23 23 20 14 16 16 13 16 12 15 14 13 15 8 6 12 11 15 10 8 9 6 6 6 10 13 14 17
21 21 19 17 13 5 6 7 9 2 6 5 11 5 8 16 0 12 22 24 20 17 10 15 10 11 17 18 11 12 3 8 12 12 17 11 8 4 6 9 9 10 10 12 14
20 21 20 18 14 7 7 6 2 7 11 4 5 10 12 16 12 5 11 18 22 22 15 20 5 8 11 9 10 6 10 11 9 12 11 16 7 12 6 6 1 7 11 11 12
19 19 20 18 6 9 6 3 6 11 3 8 6 9 9 12 15 15 14 17 15 16 17 18 18 15 11 14 12 9 12 10 9 10 12 7 6 9 10 2 4 4 8 10 11
21 20 18 16 12 9 4 8 12 10 19 4 4 8 11 7 12 16 18 19 23 22 16 20 18 20 16 21 15 17 16 11 9 11 9 7 7 5 4 4 4 6 8 12 11
23 19 14 10 9 12 10 13 11 14 4 8 10 10 10 7 5 9 18 19 19 21 20 14 16 5 8 17 18 15 11 13 11 9 9 13 3 10 14 12 8 9 13 15 16
23 17 6 7 8 11 10 18 13 2 8 5 11 3 8 5 8 8 13 10 12 15 22 11 10 10 10 9 7 13 6 10 10 15 12 10 4 9 7 6 7 11 15 17 18
17 8 6 7 8 11 11 16 16 9 7 5 3 5 6 2 6 6 6 6 6 9 13 15 11 9 10 13 14 9 13 10 12 5 9 11 8 4 7 4 4 10 14 17 17
6 5 8 12 8 9 12 10 5 12 16 11 7 8 8 8 7 5 6 3 2 7 10 16 11 14 13 5 4 6 9 15 11 14 11 9 10 7 6 3 1 4 13 15 12
11 6 4 2 5 8 11 10 12 12 12 10 12 7 9 9 5 5 2 3 4 5 6 8 9 12 15 8 7 11 13 12 11 7 11 10 8 6 4 5 5 2 8 10 7
5 3 4 8 7 6 4 10 12 10 14 17 16 14 12 11 11 7 5 4 0 2 1 6 4 12 12 11 8 18 15 14 14 11 13 12 14 13 10 10 12 0 8 9 9
3 1 3 1 9 9 8 9 10 9 9 7 10 18 16 15 14 13 12 6 6 4 3 2 5 5 6 3 5 7 13 16 17 18 10 10 8 10 9 10 11 9 1 8 10
5 4 6 12 7 8 5 8 11 9 9 10 12 10 14 17 15 11 12 7 4 4 2 1 1 4 8 4 4 8 7 9 13 6 9 5 9 9 7 10 13 13 8 2 8
5 5 5 5 5 5 3 5 7 8 8 15 11 9 11 13 20 6 6 3 2 1 1 2 2 5 8 2 6 9 5 7 6 3 5 10 7 7 7 10 13 15 14 10 5
Wind_Direction
351 346 345 344 345 343 341 340 339 338 337 337 334 337 334 323 305 293 275 247 244 230 195 152 158 183 190 283 268 292 274 19 21 359 348 86 253 182 199 169 177 177 102 129 159
343 339 336 335 335 333 334 333 330 329 329 332 330 333 333 326 305 288 263 236 217 220 190 164 173 168 252 278 272 275 310 353 352 335 321 324 245 194 206 200 199 170 133 150 158
336 333 331 329 328 327 326 325 323 322 320 325 326 332 336 332 287 186 285 230 200 194 175 180 181 194 268 267 218 305 303 327 331 353 319 309 247 226 212 208 223 193 166 165 167
328 327 326 324 323 322 321 320 317 316 314 320 323 327 338 327 304 229 309 214 181 176 178 185 192 232 264 264 269 282 304 314 316 326 325 305 305 224 232 253 212 180 171 168 172
323 322 321 319 317 317 316 315 311 311 312 314 317 321 336 290 259 219 142 161 178 177 184 201 224 261 273 299 286 254 301 309 307 319 320 307 267 296 299 243 214 159 166 171 170
322 320 317 315 314 311 311 310 306 306 307 308 309 312 318 274 245 210 173 163 176 189 214 220 241 260 280 282 277 319 304 299 308 318 62 305 4 245 58 173 170 165 171 171 170
320 318 317 315 311 308 308 306 302 302 302 302 302 301 287 263 242 206 184 178 180 202 216 224 240 237 287 260 285 285 291 296 189 353 16 324 234 158 58 181 170 171 176 173 166
319 317 317 314 311 309 307 302 299 297 298 296 296 292 268 258 234 218 198 197 205 212 220 234 237 253 252 275 253 261 274 270 107 303 30 333 335 33 129 175 164 165 174 177 173
320 319 317 315 313 310 308 299 297 294 293 292 295 265 268 263 239 227 211 205 211 214 220 235 214 250 217 241 248 233 260 271 287 303 304 307 314 96 143 180 164 177 180 185 187
322 319 319 316 314 314 311 301 298 290 279 280 264 262 230 212 192 186 198 205 201 196 192 212 222 233 220 238 245 256 250 254 259 291 299 295 300 66 46 215 180 187 190 194 199
325 322 321 320 317 319 320 329 293 254 244 239 275 251 220 227 214 208 198 195 204 212 222 206 239 228 241 241 305 301 276 275 280 282 274 280 296 338 318 222 187 193 203 202 206
327 324 323 322 321 321 330 337 40 303 299 256 250 253 253 260 267 220 189 197 202 217 215 209 235 252 256 258 244 250 261 270 278 306 241 273 285 280 303 251 223 208 213 212 202
326 326 326 325 323 322 316 224 305 336 257 269 236 248 241 217 239 234 204 214 219 226 210 237 252 78 228 234 237 245 257 275 280 252 262 267 236 218 207 251 241 222 223 216 206
323 327 329 332 340 338 323 208 312 308 263 231 216 232 205 214 242 233 216 212 218 236 224 246 260 241 238 245 249 253 250 280 283 261 248 204 272 198 201 237 218 218 224 218 209
325 322 328 327 315 326 259 266 322 198 261 138 177 177 185 194 346 205 209 210 233 219 218 226 217 227 232 235 228 253 348 294 289 260 256 214 250 164 174 260 218 222 221 222 213
322 320 318 319 314 292 268 257 254 229 233 209 181 195 196 209 219 161 190 214 231 241 216 256 195 217 228 209 223 272 271 250 252 253 230 244 251 273 212 237 95 190 222 217 208
320 312 308 303 289 269 273 210 217 240 124 208 204 195 217 230 220 217 194 197 204 212 223 228 222 224 231 236 217 236 249 250 220 217 243 109 247 272 326 238 279 228 203 203 200
320 310 302 295 277 252 227 217 232 228 234 86 266 251 240 191 223 213 222 226 215 219 233 221 234 216 219 231 234 213 242 255 261 254 247 152 262 270 300 222 210 223 193 186 186
323 320 309 287 249 216 213 215 225 245 314 269 256 263 232 199 268 217 219 224 218 220 226 230 240 144 233 215 220 223 235 260 272 255 278 276 288 246 235 246 220 202 190 187 187
330 325 273 276 235 191 225 235 232 306 301 254 259 241 249 207 238 205 200 223 226 214 227 217 248 186 172 191 203 258 232 213 230 263 265 265 252 269 221 254 213 199 195 190 196
337 309 267 289 171 198 232 231 243 225 278 299 285 272 259 302 288 260 202 127 213 189 218 224 226 181 175 206 214 185 228 239 285 300 283 273 262 147 266 303 253 203 192 187 191
339 272 321 146 209 216 238 225 275 254 230 258 278 271 279 312 301 268 231 11 21 191 197 216 226 235 210 188 300 248 241 205 225 208 241 284 286 142 260 3 316 196 185 178 181
320 277 306 210 241 215 228 250 244 255 239 240 242 249 272 285 281 260 246 105 19 199 181 172 222 224 232 208 205 234 229 232 239 282 262 262 246 119 45 15 33 264 175 185 179
314 275 163 218 267 291 259 237 239 226 258 254 256 257 256 257 253 279 253 163 82 23 261 192 226 245 249 229 221 205 225 215 218 233 232 219 262 84 32 30 25 2 198 191 190
260 35 340 243 230 250 282 299 272 252 230 249 236 240 244 245 254 242 250 221 182 143 201 254 241 231 263 282 234 243 230 208 217 232 264 321 183 57 24 20 26 20 203 204 209
307 335 325 279 276 260 219 266 271 280 241 246 235 250 226 231 237 238 243 248 247 163 194 198 209 268 230 201 225 226 229 216 220 231 245 246 124 45 46 32 25 27 25 298 237
310 306 299 283 241 251 214 290 319 314 263 248 281 277 259 246 237 289 282 335 42 322 99 316 304 251 236 182 238 218 178 226 176 210 285 228 53 33 39 31 41 28 22 14 333